This is the latest recevied weather packets stored in our database for station/object SQ6RR-11. If no packets are shown the sender has not sent any weather packets the latest 10 day(s).
| Time | Temp. | Humidity | Pressure | Rain* | Wind** | Luminosity | Snow |
|---|---|---|---|---|---|---|---|
| 1777999707 | 20.56° C | 44% | 1007.4 hPa | 0 mm | - | - | - |
| 1777999443 | 21.11° C | 40% | 1007.3 hPa | 0 mm | - | - | - |
| 1777999152 | 21.67° C | 35% | 1007.2 hPa | 0 mm | - | - | - |
| 1777998880 | 22.22° C | 35% | 1007.2 hPa | 0 mm | - | - | - |
| 1777998613 | 22.78° C | 34% | 1007.1 hPa | 0 mm | - | - | - |
| 1777998341 | 22.78° C | 33% | 1007.1 hPa | 0 mm | - | - | - |
| 1777998047 | 22.78° C | 33% | 1007.2 hPa | 0 mm | - | - | - |
| 1777997797 | 23.33° C | 34% | 1007.2 hPa | 0 mm | - | - | - |
| 1777997507 | 22.78° C | 33% | 1007.2 hPa | 0 mm | - | - | - |
| 1777997238 | 22.78° C | 33% | 1007.2 hPa | 0 mm | - | - | - |
| 1777996978 | 23.33° C | 33% | 1007.3 hPa | 0 mm | - | - | - |
| 1777996707 | 22.78° C | 33% | 1007.2 hPa | 0 mm | - | - | - |
| 1777996447 | 23.33° C | 31% | 1007.2 hPa | 0 mm | - | - | - |
| 1777996198 | 23.89° C | 30% | 1007.2 hPa | 0 mm | - | - | - |
| 1777995930 | 24.44° C | 28% | 1007.2 hPa | 0 mm | - | - | - |
| 1777995654 | 25° C | 28% | 1007.2 hPa | 0 mm | - | - | - |
| 1777995376 | 25.56° C | 27% | 1007.1 hPa | 0 mm | - | - | - |
| 1777995103 | 26.11° C | 26% | 1007.1 hPa | 0 mm | - | - | - |
| 1777994846 | 26.11° C | 25% | 1007.2 hPa | 0 mm | - | - | - |
| 1777994583 | 26.11° C | 25% | 1007.2 hPa | 0 mm | - | - | - |
| 1777994322 | 26.11° C | 24% | 1007.2 hPa | 0 mm | - | - | - |
| 1777994057 | 26.67° C | 24% | 1007.2 hPa | 0 mm | - | - | - |
| 1777993795 | 26.67° C | 24% | 1007.3 hPa | 0 mm | - | - | - |
| 1777993516 | 27.22° C | 24% | 1007.3 hPa | 0 mm | - | - | - |
| 1777993245 | 27.22° C | 25% | 1007.3 hPa | 0 mm | - | - | - |
* Rain latest hour (hover to see other rain measurements)
** Current wind speed in m/s (hover to see current wind gust speed)